EW6434 Weather Reports


time (UTC)temp
F
wind
direction
speed
knots
gust
knots
rain 1hr
in
rain 24hr
in
rain mn
in
humidity
%
barometer
mb
20220812003049 67 222 0.0 2.6 0.00 0.01 0.01 65 1012.9
20220812001606 68 181 0.0 0.0 0.00 0.01 0.01 64 1012.5
20220812000049 68 227 0.0 0.0 0.00 0.01 0.01 68 1012.7
20220811234545 65 232 0.0 2.6 0.00 0.01 0.01 68 1012.6
20220811233044 61 229 0.0 0.9 0.00 0.01 0.01 78 1012.8
20220811231544 61 225 0.0 2.6 0.00 0.01 0.01 82 1013.1
20220811230043 62 240 0.0 6.1 0.00 0.01 0.01 76 1013.0
20220811224549 62 227 0.0 6.1 0.00 0.01 0.01 77 1013.2
20220811223047 64 228 0.0 5.2 0.00 0.01 0.01 72 1013.6
20220811221541 67 54 0.0 0.0 0.00 0.01 0.01 63 1013.4
20220811220041 70 105 0.0 0.0 0.00 0.01 0.01 61 1013.3
20220811214539 70 217 0.0 2.6 0.00 0.01 0.01 61 1013.2
20220811213038 68 190 0.0 0.9 0.00 0.01 0.01 67 1013.4
20220811211542 65 98 0.0 0.9 0.00 0.01 0.01 68 1013.7
20220811210038 67 131 0.0 0.0 0.00 0.01 0.01 64 1013.8
20220811204606 69 132 0.0 0.9 0.00 0.02 0.01 58 1013.9
20220811203112 70 75 0.0 3.5 0.00 0.02 0.01 58 1014.2
20220811201539 67 112 0.0 2.6 0.00 0.02 0.01 63 1014.4
20220811200029 64 65 0.0 0.9 0.00 0.02 0.01 69 1014.5
20220811194528 66 56 0.0 0.0 0.00 0.04 0.01 68 1014.4
20220811193027 67 236 0.0 0.0 0.00 0.04 0.01 63 1014.4
20220811191526 66 237 0.0 0.0 0.00 0.04 0.01 66 1014.5
20220811190030 68 236 0.0 0.0 0.00 0.04 0.01 69 1014.5
20220811184623 69 237 0.0 0.0 0.00 0.04 0.01 64 1014.9
20220811183022 70 237 0.0 0.0 0.00 0.04 0.01 58 1015.0
20220811181519 67 222 0.0 0.0 0.00 0.04 0.01 64 1015.2
20220811180017 68 222 0.0 0.0 0.00 0.04 0.01 59 1015.3
20220811174516 68 80 0.0 0.0 0.00 0.04 0.01 67 1015.6
20220811173014 68 80 0.0 0.0 0.00 0.04 0.01 56 1015.8
20220811171523 66 214 0.0 0.0 0.00 0.04 0.01 69 1015.9
20220811170008 66 214 0.0 0.0 0.00 0.04 0.01 64 1016.2
20220811164506 66 236 0.0 0.0 0.00 0.04 0.01 65 1016.4
20220811163007 66 236 0.0 0.0 0.00 0.04 0.01 63 1016.8
20220811161503 65 236 0.0 0.0 0.00 0.04 0.01 67 1016.8
20220811160107 63 236 0.0 0.0 0.00 0.04 0.01 71 1017.2
20220811154554 62 236 0.0 0.0 0.00 0.04 0.01 76 1017.4
20220811153059 58 227 0.0 0.0 0.00 0.04 0.01 79 1017.7
20220811151546 55 200 0.0 0.0 0.00 0.04 0.01 85 1018.0
20220811150041 52 201 0.0 0.0 0.00 0.04 0.01 89 1018.1
20220811144540 50 201 0.0 0.0 0.00 0.04 0.01 97 1018.3
20220811143101 48 200 0.0 0.0 0.00 0.04 0.01 97 1018.5
20220811141550 47 200 0.0 0.0 0.00 0.04 0.01 97 1018.5
20220811140039 47 200 0.0 0.0 0.00 0.04 0.01 97 1018.5
20220811134541 46 200 0.0 0.0 0.00 0.04 0.01 96 1018.4
20220811133111 46 200 0.0 0.0 0.00 0.04 0.01 96 1018.4
20220811131542 46 200 0.0 0.0 0.00 0.04 0.01 96 1018.3
20220811130037 46 200 0.0 0.0 0.00 0.04 0.01 96 1018.1
20220811124552 46 202 0.0 0.0 0.00 0.04 0.01 96 1018.1
20220811123038 46 172 0.0 0.0 0.00 0.04 0.01 96 1018.1
20220811121535 46 172 0.0 0.0 0.00 0.04 0.01 96 1017.9
20220811120034 46 172 0.0 0.0 0.01 0.04 0.01 96 1017.9
20220811114538 47 172 0.0 0.0 0.01 0.04 0.01 96 1017.9
20220811113126 47 172 0.0 0.0 0.01 0.04 0.01 96 1018.1
20220811111510 47 172 0.0 0.0 0.01 0.04 0.01 95 1018.1
20220811110003 47 172 0.0 0.0 0.00 0.03 0.00 95 1018.1
20220811104539 47 172 0.0 0.0 0.00 0.03 0.00 95 1018.1
20220811103140 48 172 0.0 0.0 0.00 0.03 0.00 95 1018.2
20220811101544 48 172 0.0 0.0 0.00 0.03 0.00 95 1018.2
20220811100032 48 172 0.0 0.0 0.00 0.03 0.00 95 1018.2
20220811094607 48 172 0.0 0.0 0.00 0.03 0.00 94 1018.2
20220811093040 48 172 0.0 0.0 0.00 0.03 0.00 95 1018.5
20220811091538 48 172 0.0 0.0 0.00 0.03 0.00 94 1018.4
20220811090031 48 172 0.0 0.0 0.00 0.03 0.00 94 1018.4
20220811084524 49 172 0.0 0.0 0.00 0.03 0.00 94 1018.3
20220811083025 49 172 0.0 0.0 0.00 0.03 0.00 94 1018.3
20220811081522 49 172 0.0 0.0 0.00 0.03 0.00 93 1018.2
20220811080020 50 172 0.0 0.0 0.00 0.03 0.00 93 1018.1
20220811074519 50 129 0.0 0.0 0.00 0.03 0.00 93 1018.1
20220811073016 50 129 0.0 0.0 0.00 0.03 0.00 92 1018.2
20220811071515 51 129 0.0 0.0 0.00 0.03 0.00 91 1018.1
20220811070015 51 129 0.0 0.0 0.00 0.03 0.00 91 1018.2
20220811064511 52 129 0.0 0.9 0.00 0.03 0.00 90 1018.1
20220811063023 52 210 0.0 0.0 0.00 0.03 0.00 90 1017.9
20220811061512 52 87 0.0 0.0 0.00 0.03 0.00 90 1017.8
20220811060016 52 243 0.0 0.0 0.00 0.03 0.00 90 1017.8
20220811054507 53 243 0.0 0.0 0.00 0.03 0.03 90 1017.8
20220811053006 53 243 0.0 0.0 0.00 0.03 0.03 89 1017.8
20220811051505 53 243 0.0 0.0 0.00 0.03 0.03 90 1017.7
20220811050005 53 243 0.0 0.0 0.00 0.03 0.03 90 1017.7
20220811044503 53 243 0.0 0.0 0.00 0.03 0.03 89 1017.5
20220811043003 53 243 0.0 0.0 0.00 0.03 0.03 89 1017.4
20220811041502 54 243 0.0 0.0 0.00 0.03 0.03 87 1017.2
20220811040006 54 243 0.0 0.0 0.00 0.03 0.03 86 1017.3
20220811034501 55 243 0.0 0.0 0.00 0.03 0.03 85 1016.8
20220811033001 56 243 0.0 0.0 0.00 0.03 0.03 84 1016.4
20220811030042 57 243 0.0 0.0 0.00 0.03 0.03 85 1015.6
20220811024552 58 243 0.0 0.0 0.00 0.03 0.03 82 1015.2
20220811023050 59 243 0.0 0.0 0.00 0.03 0.03 80 1015.0
20220811021542 60 177 0.0 0.0 0.00 0.03 0.03 84 1014.7
20220811020040 61 95 0.0 0.0 0.00 0.03 0.03 80 1014.2
20220811014553 62 94 0.0 0.0 0.00 0.03 0.03 78 1014.0
20220811013053 63 190 0.0 0.0 0.00 0.03 0.03 80 1014.0
20220811011542 65 190 0.0 0.0 0.00 0.03 0.03 79 1013.9
20220811010038 66 218 0.0 0.9 0.00 0.03 0.03 74 1013.6
20220811004547 66 96 0.0 1.7 0.00 0.03 0.03 73 1013.5